Theta_e
318 318 317 317 317 316 316 316 316 316 315 313 313 312 312 312 311 311 311 310 310 310 311 310 311 312 312 313 313 313 313 313 313 313 313 313 312 312 313 314 315 315 312 312 317 318 318 319 320 323 327 330 332 333 332 333 333 332 332 332 331 330
318 318 318 317 317 316 316 316 316 316 315 313 312 312 312 312 311 312 311 310 310 310 310 310 311 311 312 312 312 312 312 313 312 313 312 312 313 313 314 315 314 313 311 315 321 321 322 324 326 329 331 332 333 332 332 333 332 332 332 332 331 330
318 318 318 317 317 316 316 316 316 315 313 312 312 312 311 311 311 311 311 311 310 310 310 310 311 311 311 312 312 312 312 312 312 312 312 313 314 314 315 314 313 310 311 319 324 325 326 328 330 332 333 334 333 332 332 333 331 331 332 331 330 329
318 318 318 318 317 316 316 316 316 314 313 312 311 311 311 311 311 311 311 311 310 310 310 310 310 311 311 311 311 312 312 312 313 312 313 313 314 314 314 312 311 309 313 323 327 328 330 331 332 333 334 334 334 332 332 332 331 331 331 330 329 328
318 318 318 318 317 317 316 316 316 315 313 312 311 311 310 310 311 311 311 311 311 310 310 310 310 310 310 311 311 311 312 312 312 313 313 313 313 312 311 310 310 311 315 324 329 330 332 333 333 334 334 334 333 332 332 331 330 330 330 329 328 327
319 318 318 317 317 317 317 316 316 316 314 312 311 310 310 310 310 311 311 311 312 311 311 311 310 310 310 310 310 310 310 311 311 312 311 312 311 310 310 311 312 314 318 326 330 331 332 333 334 334 334 333 333 332 332 331 330 330 329 327 326 325
320 318 317 317 317 317 317 317 317 317 315 313 311 310 310 310 310 311 311 312 312 312 311 312 312 311 310 310 310 309 310 310 310 310 310 310 310 310 311 312 316 322 326 330 332 332 334 333 334 334 334 333 333 332 332 331 330 329 327 325 324 324
320 318 317 317 317 317 317 318 318 318 316 314 311 310 309 309 310 311 312 313 312 313 315 316 316 315 314 312 311 310 310 310 310 310 310 310 312 315 315 315 323 331 332 334 334 334 334 334 334 334 333 333 333 332 332 330 329 328 325 324 324 324
319 318 318 318 318 318 319 319 319 318 317 315 312 310 309 309 310 310 312 312 314 319 322 322 321 322 322 320 318 315 313 311 310 311 312 316 320 323 323 323 329 333 334 335 335 335 334 333 333 333 333 333 332 332 331 330 330 328 326 325 325 324
319 319 319 319 319 320 322 321 319 318 317 315 312 310 309 309 309 311 312 313 317 323 326 326 327 329 330 328 327 324 319 315 313 315 320 325 328 329 330 332 333 334 335 336 335 334 334 333 333 333 333 333 332 332 331 331 330 329 327 327 326 325
323 321 321 321 324 326 326 325 321 319 317 315 312 310 309 309 309 310 312 314 318 324 327 328 329 331 332 331 331 330 327 322 319 324 328 331 331 331 333 334 335 335 335 335 335 334 334 334 333 333 333 333 332 332 332 331 330 329 328 327 326 324
330 325 324 326 329 330 329 328 325 321 318 315 313 310 309 309 309 309 312 314 317 322 327 329 330 331 332 332 332 331 331 329 327 329 331 332 332 333 334 334 334 334 335 335 335 334 333 333 333 333 333 333 332 332 332 331 330 329 328 327 325 323
335 329 328 331 333 332 331 330 329 326 322 317 313 311 309 309 309 310 311 313 317 323 327 329 330 331 332 333 333 332 332 332 332 331 331 332 332 333 334 334 334 334 334 334 334 334 333 333 333 333 333 333 333 333 332 331 330 328 327 326 324 323
337 334 333 334 334 334 333 332 331 329 326 322 316 311 310 309 309 310 311 313 318 325 328 329 331 332 333 333 333 334 333 333 333 333 332 332 332 333 333 334 334 333 334 334 334 334 334 333 333 333 333 333 333 332 331 330 328 327 326 324 323 321
336 336 335 335 335 335 334 333 333 329 325 324 319 313 310 309 309 310 311 314 321 325 327 330 332 332 333 333 333 334 334 334 334 334 333 332 333 334 333 334 334 334 334 334 334 334 334 333 333 333 333 332 332 331 330 329 327 326 324 323 322 317
336 335 335 335 335 335 334 333 333 329 323 321 319 314 310 309 309 309 311 316 322 325 327 330 331 332 332 332 332 332 332 333 335 334 333 334 334 334 334 334 334 334 334 334 334 334 333 333 333 332 332 332 331 330 329 326 325 324 322 322 320 311
337 336 335 336 336 336 336 334 333 329 323 320 317 312 310 309 309 310 312 317 323 324 326 329 330 331 332 332 332 332 330 332 334 334 334 334 334 334 333 333 333 333 334 334 334 334 333 333 332 332 332 331 330 328 326 324 322 322 321 321 316 306
337 338 336 336 336 337 336 335 333 329 325 322 317 314 314 314 314 314 315 319 323 324 325 327 329 331 332 332 332 331 331 332 333 334 334 334 334 334 333 332 332 333 334 334 334 333 332 332 332 331 331 329 328 326 323 321 320 320 320 316 309 302
338 338 337 336 336 336 336 335 334 330 326 324 321 321 322 321 320 320 321 322 323 325 325 327 330 332 332 332 332 331 331 331 332 334 334 334 334 333 333 331 331 333 333 333 333 332 332 332 331 330 329 328 325 323 321 320 319 318 316 310 304 301
338 338 338 338 337 336 336 335 334 332 328 324 324 325 326 324 323 323 324 324 325 325 325 327 330 332 332 332 331 331 332 331 332 334 334 334 334 333 332 331 331 332 333 333 332 332 332 331 331 329 327 325 323 321 320 318 317 316 312 305 302 302
338 338 339 338 338 337 336 335 334 333 330 325 324 325 325 325 324 324 325 326 326 326 326 327 330 331 331 332 331 331 331 331 332 333 334 334 334 333 332 331 331 331 332 333 332 331 331 330 330 328 325 322 320 320 318 316 315 313 308 304 303 303
338 338 338 338 338 338 337 335 333 332 331 327 324 324 324 323 324 325 326 327 327 327 327 327 329 331 331 332 332 331 331 331 332 333 334 334 333 333 332 331 331 331 332 332 332 331 330 330 329 328 325 322 320 318 316 314 313 311 307 305 304 303
339 338 337 337 338 338 337 337 334 333 332 329 326 324 325 325 325 325 326 327 327 327 328 328 330 331 332 332 332 332 331 331 332 333 333 333 332 332 332 332 330 331 332 332 331 331 330 330 329 327 325 324 321 319 316 313 312 310 308 307 305 304
340 339 337 336 337 338 338 337 336 335 334 332 329 327 327 328 327 327 327 328 328 328 329 329 331 332 332 333 333 332 332 331 332 332 332 332 331 331 332 332 332 332 333 332 331 330 330 329 329 327 326 324 322 318 316 315 313 311 309 309 307 305
340 339 338 336 336 338 339 338 337 336 335 334 332 331 330 329 328 327 328 330 330 329 329 329 330 332 332 333 333 332 332 332 331 331 331 331 331 331 331 332 332 332 333 332 332 331 330 329 329 328 327 326 322 318 318 317 314 312 311 310 309 306
341 340 338 337 337 338 338 338 337 336 334 333 332 331 329 329 328 327 328 330 331 331 330 329 330 332 333 333 333 332 332 332 331 331 331 331 330 331 331 332 332 332 332 332 332 331 330 329 328 328 327 327 325 321 319 318 315 313 312 311 310 307
341 341 339 338 337 337 338 337 337 335 333 331 330 329 328 329 329 328 328 331 332 332 331 329 331 334 334 333 333 332 332 332 331 330 330 331 330 330 331 332 332 332 332 331 332 332 331 329 328 327 327 327 326 322 321 319 317 316 314 312 311 308
341 341 340 338 338 337 337 336 336 336 335 333 331 330 329 329 329 329 329 331 333 333 331 330 333 335 334 333 333 332 332 332 331 330 330 331 330 330 331 332 332 332 332 332 332 332 331 329 328 327 327 326 324 322 321 321 320 321 319 315 312 309
342 341 340 339 338 338 337 337 336 336 336 335 334 332 331 330 330 329 329 331 333 333 332 332 334 335 334 333 333 333 332 332 331 330 331 331 331 330 331 331 331 331 332 332 332 331 331 329 328 327 327 326 324 323 322 322 322 322 322 319 314 310
342 341 341 340 339 338 338 337 337 337 336 336 335 334 333 332 331 330 329 330 333 333 333 333 334 335 335 334 333 332 332 331 331 331 331 332 331 331 331 331 331 331 331 330 330 329 329 328 327 327 327 326 325 324 323 323 322 322 322 320 316 312
342 341 341 340 339 339 338 338 338 337 337 336 336 335 334 333 332 330 329 329 332 333 334 334 334 335 335 333 333 332 331 331 331 331 332 332 332 332 332 331 330 329 329 328 328 328 328 327 327 327 327 326 326 325 324 323 322 322 321 320 318 315
342 342 341 340 340 339 339 338 338 338 338 337 336 335 334 333 331 330 328 329 331 334 334 334 335 335 335 334 333 332 331 331 331 332 332 333 332 332 332 330 329 327 327 327 327 328 327 327 326 326 326 325 325 324 323 322 322 322 321 320 319 317
342 342 342 341 340 340 339 339 338 338 338 338 337 336 335 333 331 330 328 328 331 334 335 335 335 335 334 333 333 333 331 331 331 332 332 333 332 332 331 329 327 327 327 327 327 327 327 326 326 325 325 325 324 322 321 321 320 320 320 319 319 316
343 343 342 341 341 340 340 339 339 339 338 338 338 337 337 334 332 330 327 327 331 334 335 335 335 335 334 334 333 333 332 330 331 332 332 332 332 331 329 328 327 326 327 327 326 326 326 325 324 323 323 322 321 320 319 316 313 312 314 316 317 317
343 343 342 341 341 340 340 340 339 339 338 338 338 338 337 336 333 330 327 327 331 334 335 335 335 335 334 334 333 333 332 330 330 331 332 332 331 330 328 327 326 326 325 325 325 325 325 323 320 318 317 316 316 315 312 308 305 307 309 313 316 316
342 342 342 342 341 340 340 340 339 339 339 338 338 338 338 336 333 330 327 327 331 335 335 335 335 335 334 334 334 333 332 330 330 331 332 331 330 329 327 326 326 325 324 323 323 323 322 319 316 314 312 311 310 309 306 304 303 304 306 310 313 314
342 342 342 342 341 340 340 340 340 339 339 339 339 338 338 337 333 329 327 327 331 335 336 336 336 336 335 334 334 333 331 330 330 331 331 331 330 328 327 327 325 323 322 321 321 320 318 315 313 311 310 308 306 305 304 303 302 303 304 306 308 309
Wind_Speed
23 22 21 20 19 18 18 18 19 18 18 17 16 15 15 13 12 11 10 9 9 9 9 9 9 10 10 11 13 15 16 16 16 16 15 14 13 11 10 8 7 7 7 7 7 6 5 3 2 1 1 2 3 4 4 4 4 6 7 7 8 9
24 22 21 21 20 19 19 19 20 20 19 18 17 16 16 14 13 12 10 10 9 9 9 9 9 10 10 11 13 14 14 15 15 15 14 13 12 11 10 9 8 8 8 8 7 6 5 3 2 1 1 2 3 3 4 4 4 6 6 6 7 8
24 22 22 21 20 20 20 20 20 20 20 18 18 17 16 15 13 13 11 10 10 10 10 10 10 10 11 12 12 13 13 14 14 14 13 12 11 10 10 9 8 8 8 9 8 6 5 4 2 2 2 2 3 3 4 4 5 6 6 7 7 7
24 23 22 21 21 21 20 20 20 20 19 18 18 18 16 15 14 13 12 11 11 11 11 11 11 11 11 12 12 13 13 13 13 13 12 11 11 10 10 9 8 8 9 9 9 7 6 4 3 3 3 4 3 3 4 4 5 6 7 7 7 7
24 23 22 22 21 21 20 19 19 19 19 19 19 18 17 16 16 15 14 13 13 12 12 11 11 11 11 11 12 12 13 13 12 12 12 11 11 10 9 9 9 9 10 10 9 8 6 5 4 4 5 4 3 3 3 3 6 7 8 8 7 6
24 23 22 21 20 20 20 19 19 19 20 20 20 19 18 17 17 16 15 14 14 13 12 11 10 10 10 10 11 12 12 12 12 11 11 11 10 9 9 9 9 10 10 10 10 8 7 6 5 5 5 4 3 3 2 4 6 8 8 8 7 7
24 23 22 20 20 20 20 19 19 19 20 20 20 20 19 19 18 16 16 15 14 13 11 10 10 9 9 10 10 11 11 11 11 11 10 10 9 9 9 9 10 10 10 10 9 8 7 6 6 5 4 3 4 3 3 4 6 8 8 7 8 7
23 22 21 21 20 20 20 19 20 20 20 20 20 20 19 19 19 17 16 16 15 13 11 10 9 9 9 9 8 9 9 10 10 10 9 9 9 9 9 10 10 10 10 9 8 7 6 6 6 4 3 4 4 3 3 4 6 7 7 7 8 8
24 23 22 21 21 20 20 20 21 20 20 21 20 20 20 20 19 18 17 17 16 14 12 11 10 9 9 8 7 7 8 8 8 8 9 9 9 9 9 10 10 10 10 8 7 6 5 6 5 4 4 5 4 3 3 4 5 6 7 8 9 9
24 23 23 23 22 21 20 21 21 20 20 20 20 20 21 21 20 19 19 18 17 14 12 12 11 10 10 9 8 7 7 7 8 8 9 9 9 9 9 9 9 9 9 8 7 6 5 5 5 5 5 5 4 3 2 4 5 5 6 8 10 10
24 24 24 24 22 20 20 20 19 19 20 20 20 21 21 21 20 20 20 19 17 14 13 13 12 11 10 9 9 9 8 8 8 9 9 10 9 9 9 9 9 9 9 8 8 7 5 5 6 6 6 5 5 3 3 5 5 5 6 9 10 11
25 25 25 24 21 21 20 19 18 18 19 19 20 21 21 21 20 20 21 20 17 15 13 13 12 12 10 9 9 9 9 9 9 10 10 10 10 9 10 10 10 9 9 9 9 7 6 6 6 6 6 6 5 4 4 5 5 5 7 9 11 11
25 26 26 24 22 21 19 18 18 17 18 20 21 21 21 21 20 21 21 20 17 15 13 13 13 12 11 10 9 10 10 10 10 10 11 11 10 10 10 11 10 10 10 10 9 7 6 6 6 6 6 6 5 4 5 6 6 7 8 10 11 11
26 27 26 24 23 21 20 19 18 17 18 20 21 21 21 20 20 21 21 20 17 15 14 14 14 13 12 10 9 9 10 10 11 11 12 12 11 11 11 11 11 10 10 10 9 7 6 6 6 6 7 6 5 6 6 6 6 7 9 10 11 11
26 26 26 25 24 22 21 19 18 17 17 20 22 22 21 21 21 21 21 20 17 15 15 14 14 13 12 10 8 8 9 11 12 12 12 12 12 12 11 11 11 10 10 10 10 8 6 6 6 6 6 6 6 6 6 6 6 7 9 10 10 10
26 25 26 25 24 23 21 20 18 17 16 19 22 22 21 21 21 21 21 20 18 16 15 15 14 12 10 9 8 8 9 10 12 13 13 13 13 12 12 12 11 10 10 10 10 9 7 6 7 7 7 6 6 6 5 5 6 7 8 9 9 8
27 26 25 26 25 23 22 20 18 17 17 19 21 22 21 21 21 21 21 20 18 17 16 15 13 11 10 9 9 9 10 10 11 12 13 14 13 12 12 12 12 12 11 11 11 9 7 7 8 8 8 7 6 5 5 5 5 6 8 8 8 7
27 26 25 25 26 24 23 20 19 18 18 19 21 20 20 20 20 21 21 20 18 17 17 15 12 11 10 10 10 10 11 11 11 12 12 14 13 12 12 12 12 12 12 12 11 9 8 8 9 10 8 7 6 5 5 4 5 7 8 8 7 6
28 28 26 25 25 24 23 22 21 19 19 20 21 20 19 19 19 20 21 20 18 17 16 15 12 11 11 11 11 10 12 12 11 12 13 13 13 12 12 12 13 13 13 13 10 8 8 9 10 11 9 8 7 5 3 4 5 7 7 6 5 5
29 29 28 27 26 26 26 26 24 23 22 22 22 21 20 19 18 19 20 19 18 16 15 14 13 13 12 12 11 11 11 11 11 12 13 13 12 12 12 12 13 14 14 14 11 10 10 11 11 11 10 8 6 4 3 4 5 5 5 4 4 5
30 31 31 30 29 29 30 29 28 27 26 24 23 22 21 20 19 18 19 19 17 16 15 14 14 14 13 13 13 12 11 11 12 13 13 13 12 12 12 13 14 14 14 14 13 13 13 12 13 12 11 8 6 4 4 3 4 4 3 2 3 4
31 32 32 31 31 31 31 30 28 27 26 25 25 24 23 22 20 18 18 18 17 16 15 15 15 14 14 13 13 13 12 12 12 13 13 13 13 13 13 14 15 15 14 14 13 14 14 14 14 13 10 8 7 7 6 5 5 4 3 2 1 3
32 33 32 32 32 31 30 28 26 24 24 25 24 24 23 21 19 18 18 18 17 16 15 15 15 15 14 14 13 14 13 13 13 14 14 14 14 13 13 14 15 16 15 15 14 15 15 15 15 13 9 9 9 9 8 8 8 6 5 3 2 1
34 33 32 32 31 30 28 27 25 22 21 22 23 22 22 22 21 20 19 18 18 18 16 16 16 15 14 14 14 14 14 13 13 14 13 13 13 13 14 15 16 16 16 16 16 16 16 16 16 15 11 10 10 10 10 11 11 9 8 6 4 2
35 33 32 32 31 31 30 28 27 25 24 24 24 24 25 24 23 22 22 20 19 18 17 17 17 16 15 15 15 15 14 14 14 14 13 13 12 12 13 15 16 17 17 16 15 16 17 17 19 19 16 12 10 10 11 11 10 10 10 9 7 4
36 34 33 33 32 32 32 31 30 29 29 29 29 29 28 27 25 24 23 21 19 18 17 18 17 17 17 16 16 15 15 14 14 14 13 13 12 12 14 15 16 16 16 16 15 16 17 18 20 21 20 18 15 13 11 9 10 10 10 11 9 7
38 35 34 35 35 34 34 33 31 30 30 30 31 31 28 26 24 23 23 21 19 18 18 18 18 17 17 17 16 16 15 14 13 14 14 13 12 12 13 15 16 16 16 16 16 16 17 18 20 21 21 20 19 17 14 11 10 9 8 10 10 9
40 37 36 36 37 36 35 34 32 31 30 30 30 29 27 26 25 23 23 21 20 19 18 19 18 18 18 17 17 16 15 14 13 13 13 13 12 13 14 14 16 16 17 17 17 17 17 17 19 20 21 21 19 18 16 13 11 9 8 8 9 10
42 39 38 38 39 38 36 34 32 32 31 31 31 30 28 27 25 24 24 22 20 19 19 19 19 19 18 18 17 16 15 13 12 12 13 13 13 14 14 14 15 16 17 17 18 18 17 18 18 19 20 20 19 18 17 15 13 12 10 9 9 9
44 42 40 40 40 39 37 35 34 33 32 32 33 32 30 28 26 25 24 23 22 21 20 20 20 20 19 18 17 16 15 13 12 12 12 14 14 14 15 14 14 16 17 17 18 18 18 17 17 17 18 18 18 18 17 16 15 14 13 11 10 9
46 44 42 42 42 40 38 37 36 35 34 34 34 33 32 31 29 27 26 24 23 21 21 21 21 20 20 19 18 17 15 14 13 13 14 14 15 15 16 16 16 16 17 17 17 18 18 18 17 17 18 18 18 18 17 16 16 15 14 13 11 10
48 47 46 44 42 41 40 39 38 37 36 35 34 34 33 32 31 29 27 25 23 22 22 22 22 22 21 19 19 18 16 15 14 14 15 15 15 16 17 18 17 17 16 17 18 18 18 19 19 19 19 18 17 17 17 16 16 15 15 13 12 12
50 49 48 46 43 42 41 40 39 39 38 37 35 34 33 31 30 29 27 25 24 23 23 23 22 22 21 20 19 18 17 15 14 15 15 16 17 18 18 18 17 17 16 16 17 18 19 18 18 18 18 18 17 17 16 16 16 16 16 14 13 14
51 51 50 48 44 43 43 41 40 40 40 39 37 35 33 31 30 29 27 25 24 23 22 21 21 20 20 19 18 18 17 16 15 16 16 17 18 18 17 17 17 16 16 16 17 17 17 17 17 17 17 17 17 16 15 15 15 15 14 14 14 15
53 52 52 49 45 44 43 42 41 41 41 40 37 35 33 30 29 28 26 24 23 22 21 20 20 19 19 18 18 18 17 17 17 17 17 18 18 17 16 16 16 16 16 16 16 16 16 16 16 15 15 16 15 14 14 13 13 12 12 12 13 15
54 53 52 49 45 44 44 43 42 42 42 41 38 36 34 31 29 27 26 25 23 21 19 19 19 19 19 18 18 17 18 17 17 17 18 17 17 16 16 16 16 16 16 15 15 16 15 15 15 14 14 14 13 13 12 12 11 10 11 12 14 15
54 52 51 49 46 44 44 44 43 43 43 42 39 37 34 31 29 27 26 25 23 20 19 19 19 19 19 18 17 17 17 17 17 18 18 17 17 16 16 16 16 15 15 15 15 15 15 15 14 15 14 13 12 12 11 11 10 10 11 12 13 15
Wind_Direction
204 201 199 200 200 197 195 194 192 193 194 193 188 187 189 188 187 183 177 172 170 169 164 160 157 157 158 163 173 177 179 181 183 185 189 192 193 193 195 198 197 193 196 204 213 229 248 266 298 335 25 48 45 32 23 17 16 13 16 23 33 42
206 203 201 201 201 199 197 196 194 194 196 195 190 191 192 189 189 185 180 176 175 174 168 164 161 160 162 164 173 178 182 185 186 188 190 192 192 193 195 197 197 197 197 203 215 229 245 258 277 299 2 41 34 23 18 15 15 15 18 24 33 36
207 205 202 202 202 200 201 201 198 197 198 196 193 194 193 190 191 188 181 179 181 179 172 169 166 166 167 169 175 179 183 187 188 189 192 194 195 196 197 198 199 199 197 203 216 229 241 247 255 275 318 0 6 3 6 7 9 16 21 22 27 28
205 205 204 203 203 202 204 204 202 200 199 198 196 196 194 192 193 189 181 184 187 184 181 176 175 176 176 177 178 181 184 187 190 192 196 199 201 202 201 201 201 201 198 204 217 226 237 243 251 274 311 339 341 341 353 3 8 16 18 15 20 23
203 204 205 205 205 206 207 205 204 203 201 200 199 197 195 193 195 191 183 188 192 189 188 185 184 185 185 186 186 186 188 189 192 195 200 204 205 206 205 203 204 203 199 203 216 223 234 245 257 281 304 322 319 318 338 358 9 14 12 7 10 14
201 203 205 207 207 209 209 206 205 204 203 202 200 198 196 196 197 192 187 192 196 195 192 192 191 190 192 195 194 192 192 193 195 197 202 206 208 207 207 205 204 202 199 204 217 226 237 250 261 281 301 306 292 296 326 356 10 13 8 5 6 9
200 201 203 206 208 210 210 206 205 205 205 204 201 200 197 198 199 194 192 195 198 197 194 195 196 196 198 200 202 201 198 199 200 202 205 208 208 207 205 201 197 196 199 208 221 233 243 249 256 274 289 273 267 282 322 358 15 12 7 10 11 8
196 199 201 203 206 209 208 205 204 205 206 205 202 200 199 199 200 196 195 198 198 196 195 197 198 201 202 204 208 210 210 208 206 205 206 206 204 203 200 195 191 194 204 214 227 239 244 245 250 257 251 247 257 279 319 2 14 9 11 17 12 5
193 196 199 201 204 205 205 204 205 205 205 206 203 200 201 201 201 198 198 200 200 198 196 195 196 200 205 207 210 217 219 213 207 203 200 200 200 199 198 195 193 200 213 222 231 236 237 243 244 235 232 241 258 279 317 1 2 5 16 13 5 358
192 194 198 199 201 203 203 204 205 205 205 205 202 202 203 202 202 201 201 204 203 201 197 192 194 200 205 207 208 214 218 211 205 198 195 198 201 202 201 201 204 210 221 227 231 231 234 245 243 234 234 242 259 276 319 346 348 3 11 0 354 353
192 194 197 198 199 201 201 202 203 204 205 204 203 205 204 203 203 204 205 206 207 206 201 195 197 204 207 208 209 213 214 209 204 200 201 206 209 210 209 212 217 219 224 228 228 229 236 247 247 242 238 244 259 271 308 326 338 356 355 350 349 349
191 193 196 196 196 199 201 200 200 202 204 204 205 207 205 203 203 206 208 209 211 211 208 203 204 210 212 211 213 216 216 210 209 210 211 215 217 215 214 219 222 221 224 225 223 228 237 243 245 246 241 245 255 269 301 316 332 341 342 344 346 347
191 193 195 195 195 197 200 200 200 202 205 207 207 209 207 203 204 208 211 212 213 213 209 206 208 214 215 215 219 221 221 218 218 220 218 219 220 220 219 221 223 220 222 225 225 231 237 235 237 240 240 242 252 273 297 312 324 331 336 339 340 344
193 194 194 194 196 196 199 201 201 203 207 209 209 210 208 204 204 208 213 215 214 211 207 206 209 214 215 218 221 222 224 223 224 225 222 220 222 225 223 223 224 221 223 228 229 231 233 233 235 236 236 239 254 276 291 304 317 325 332 335 337 345
194 194 194 194 197 197 199 202 204 206 207 209 210 211 209 204 205 209 215 217 216 213 208 208 213 218 220 221 224 223 226 227 226 226 223 223 224 226 225 222 222 221 224 227 228 227 224 229 236 235 235 242 258 273 286 298 311 321 328 331 336 349
195 194 193 195 198 198 200 203 204 206 206 207 209 211 209 206 207 210 216 218 218 218 212 211 217 222 227 229 229 228 231 230 225 222 222 225 227 226 224 222 222 222 224 228 229 227 220 222 230 232 235 243 254 268 281 289 306 320 325 331 341 356
199 195 194 196 198 199 201 202 203 203 204 207 208 209 208 207 209 212 217 219 220 220 217 215 219 227 233 236 235 234 236 233 224 220 220 224 225 224 222 221 223 223 224 229 233 230 220 216 222 230 234 236 244 257 270 285 308 319 325 334 347 359
202 200 197 197 200 201 201 201 202 202 204 208 208 207 207 211 214 216 219 220 221 221 220 219 223 232 237 240 241 240 237 232 225 221 219 222 221 220 220 219 223 225 227 232 236 233 226 222 223 228 228 223 230 245 261 293 317 324 332 340 350 360
205 203 200 198 199 200 200 200 201 202 204 206 207 207 209 214 218 219 220 221 221 221 221 221 226 235 239 240 243 245 239 231 227 222 219 220 220 220 221 218 218 223 228 231 232 232 232 228 221 219 220 217 219 236 267 305 317 323 334 344 359 8
207 205 202 199 198 198 198 199 201 203 203 204 206 208 210 215 219 220 220 219 220 220 222 224 229 237 240 240 243 248 241 233 230 224 221 223 224 226 227 222 218 221 227 226 219 221 229 230 221 211 209 214 217 228 261 292 303 315 331 351 14 22
208 206 204 203 200 199 198 198 201 204 205 205 206 208 210 214 218 219 218 218 220 222 226 229 233 239 242 241 243 247 244 237 232 226 224 226 229 230 229 224 221 221 226 227 219 217 222 226 224 215 205 202 210 225 243 265 282 293 319 356 25 37
211 208 207 207 206 204 203 203 204 205 205 206 208 211 211 213 216 218 218 218 221 225 229 232 236 240 241 242 243 245 246 241 234 228 225 226 227 228 225 222 222 221 221 226 228 225 224 224 223 223 221 211 206 214 224 232 250 264 276 305 6 35
215 212 209 210 211 210 209 208 210 210 209 209 211 214 215 215 217 220 222 221 223 227 231 234 238 240 239 241 244 244 245 242 234 229 227 226 225 224 222 222 225 226 221 220 225 229 229 229 225 222 223 222 219 218 218 221 230 239 247 258 284 353
217 216 214 213 213 214 213 212 213 215 216 217 217 219 219 219 220 222 224 225 226 228 232 237 239 240 239 240 244 244 243 239 233 230 229 228 227 225 223 222 223 228 228 223 224 228 231 234 234 231 225 224 225 220 223 229 227 228 236 248 262 281
218 218 217 216 214 214 214 212 212 212 215 217 219 220 221 220 219 220 224 226 227 229 234 239 241 242 240 239 243 245 242 236 231 230 229 229 231 231 229 227 227 230 235 236 237 238 239 238 238 239 237 234 227 223 237 242 225 223 234 242 253 257
219 219 219 218 216 214 214 213 213 212 212 214 216 218 219 220 219 220 223 225 228 232 237 239 241 243 240 240 243 245 242 235 230 229 230 230 232 233 232 231 233 237 241 247 249 247 246 243 238 236 238 239 241 245 253 245 219 219 232 236 242 242
218 220 220 219 217 216 215 215 217 218 219 218 218 219 219 221 222 223 225 227 230 234 238 240 242 243 241 242 243 245 242 234 229 229 230 233 234 238 239 237 239 242 245 248 250 250 250 245 239 237 238 240 244 248 253 248 234 230 230 229 233 234
219 221 222 221 220 219 218 218 218 221 225 225 226 224 222 222 223 224 226 229 233 237 239 241 242 243 243 245 246 244 240 234 231 231 232 237 239 242 243 241 242 244 246 248 251 255 255 250 246 243 241 241 243 246 249 253 252 250 243 232 230 230
220 221 223 223 222 221 221 221 221 222 225 227 230 229 227 226 224 223 225 228 232 237 240 242 243 244 245 246 246 242 238 236 234 232 234 238 242 244 243 244 248 250 252 255 258 259 257 254 251 248 245 245 246 247 249 253 253 251 249 244 239 235
221 221 223 224 224 223 222 223 223 224 225 226 228 228 227 227 226 225 226 227 230 235 239 242 244 245 245 245 243 240 237 236 235 233 234 238 244 249 249 251 256 258 259 260 259 259 258 256 252 247 247 249 250 250 252 255 256 253 251 251 250 247
223 222 223 224 224 223 223 224 224 225 227 228 228 228 226 225 226 226 226 227 230 235 238 242 244 245 246 243 241 239 236 234 234 234 236 240 245 250 253 255 258 259 260 259 258 258 257 256 250 244 244 247 250 254 258 262 264 262 259 258 258 256
224 223 223 223 223 223 224 225 226 225 227 229 230 230 228 226 226 225 226 226 229 234 238 241 242 243 243 241 240 240 238 235 234 237 240 243 245 249 253 257 260 261 259 258 258 257 257 255 250 246 247 250 256 261 264 266 268 267 262 262 263 259
226 224 223 223 223 224 224 225 226 226 227 230 231 232 231 230 229 228 228 227 229 233 237 240 242 243 242 241 241 242 243 241 240 242 244 247 249 253 256 259 262 262 258 256 256 256 257 256 252 251 253 257 262 264 265 267 267 266 260 256 252 248
226 225 223 223 222 224 226 226 227 227 228 230 231 232 232 232 232 231 231 230 232 235 238 243 246 247 246 245 245 246 246 245 245 246 247 250 254 257 260 263 264 264 260 256 254 254 254 253 251 252 255 259 261 261 263 265 264 261 254 245 241 241
226 224 223 222 222 225 226 227 228 228 229 230 232 233 233 234 233 232 232 232 234 237 240 245 250 251 249 247 248 248 247 246 245 248 250 253 256 259 262 266 268 267 262 257 254 252 251 250 251 253 256 258 258 259 260 259 256 252 245 240 238 241
226 224 222 221 221 224 227 228 228 229 230 230 231 233 233 233 233 232 231 232 234 236 240 245 249 250 249 247 248 247 246 246 247 250 254 256 258 261 265 269 271 267 261 257 254 251 249 248 252 255 257 257 256 254 253 250 247 245 243 242 241 241
223 221 222 222 222 223 226 228 229 229 230 230 231 232 232 232 232 229 230 232 233 234 238 243 247 249 248 248 247 244 243 244 246 251 254 257 260 263 266 270 270 262 256 254 251 250 248 249 253 256 256 255 252 248 246 245 245 246 246 246 247 246